Free Severe Weather Alerts by Email and Text Message   

 
Follow iAlert.com on twitter @ialertcom
Search For Active Alerts in Your Area  
  Hi Guest:  [ Sign-up / Services ] [ Login ]

Current weather by "City, St" or "zip code"  

 

Advertise Here

Hazardous Weather Conditions

No active alerts for DENVER, COLORADO

Current Conditions: DENVER, COLORADO

Fair


34.0 F

Last Updated on Dec 16 2018, 3:52 am MST
Humidity: 41%
Wind Speed: W 8.1 mph
Barometer 30.26 in
Dewpoint: 12.2 F
Visibility: 10.00 mi
Precip: --
Heat Index: NA
Wind Chill: 27 F
Current conditions at:

Broomfield / Jeffco, CO (KBJC)

Lat: 39.90 Lon: -105.10

Local Radar Image active severe weather and emergency alerts image image weather storm and storm spotter reports image weather observation monitoring service image
Local
Radar
Active
Alerts
Storm Reports Weather
Monitoring

Weather Alert Notification Services


ialert severe weather and emergency alerts by text message and email ialert daily weather forecast by email and text message service ialert real-time weather-observation monitoring and alert notification service ialert storm report monitoring alert notification

Observation History for DENVER, COLORADO


Time Wind
(mph)
Vis
(mi)
Weather Precip (in) Temperature (F) Relative
Humidity
Wind
Chill
(°F)
Heat
Index
(°F)
Pressure
Air Dwpt altimeter
(in)
sea level
(mb)
3:52 am MST W 8.1 10.00 Fair -- 34.0 12.2 41% 27 NA 30.26 M
2:52 am MST W 3.5 10.00 Fair -- 37.0 12.2 35% NA NA 30.26 M
1:51 am MST NW 6.9 10.00 Fair -- 37.0 14.0 38% 32 NA 30.28 M
12:52 am MST NW 12.7 10.00 Fair -- 39.0 14.0 36% 31 NA 30.25 M
11:53 pm MST N 15.0 10.00 Fair -- 36.0 14.0 41% 27 NA 30.24 M
10:54 pm MST N 11.5 10.00 Fair -- 43.0 12.2 29% 37 NA 30.22 M
9:54 pm MST NW 8.1 10.00 Fair -- 45.0 12.2 27% 41 NA 30.20 M
8:47 pm MST N 0.0 30.00 Clear -- 46.0 15.8 29% NA NA 30.18 M
7:47 pm MST N 0.0 30.00 Clear -- 45.0 14.0 29% NA NA 30.17 M
6:47 pm MST N 0.0 30.00 A Few Clouds -- 45.0 15.8 31% NA NA 30.16 M
5:47 pm MST E 3.5 30.00 Partly Cloudy -- 46.0 12.2 25% NA NA 30.14 M
4:47 pm MST N 0.0 30.00 Mostly Cloudy -- 46.0 12.2 25% NA NA 30.12 M
3:47 pm MST NW 5.8 50.00 Mostly Cloudy -- 55.0 15.8 21% 54 NA 30.10 M
2:47 pm MST NW 6.9 50.00 Mostly Cloudy -- 55.0 17.6 23% 53 NA 30.07 M
1:45 pm MST W 23.0 G 29.9 50.00 Mostly Cloudy and Breezy -- 55.0 15.8 21% 50 NA 30.04 M
11:45 am MST W 18.4 50.00 Mostly Cloudy -- 55.0 17.6 23% 50 NA 30.07 M
10:49 am MST SW 8.1 G 24.2 50.00 Mostly Cloudy -- 55.0 19.4 24% 53 NA 30.07 M
9:45 am MST W 32.2 G 41.4 50.00 Mostly Cloudy and Windy -- 57.0 17.6 21% 51 NA 30.07 M
8:45 am MST W 18.4 50.00 Mostly Cloudy -- 57.0 10.4 15% 53 NA 30.07 M
7:55 am MST W 8.1 G 18.4 70.00 Mostly Cloudy -- 52.0 6.8 16% 49 NA 30.06 M
6:55 am MST W 16.1 G 23.0 30.00 Mostly Cloudy -- 54.0 5.0 14% 50 NA 30.05 M
5:45 am MST W 21.9 G 33.4 30.00 Mostly Cloudy and Breezy -- 55.0 5.0 13% 50 NA 30.05 M
4:51 am MST SW 4.6 10.00 Fair -- 34.0 14.0 44% 30 NA 30.05 M

Regional Weather Observation:


Erie Municipal Airport, CO (KEIK)

Fair
23.0 F

Boulder Municipal Airport, CO (KBDU)

Fair
37.0 F

Fort Collins/Loveland - Northern Colorado Regional Airport, CO (KFNL)

Fair
29.0 F

Buckley Air Force Base Airport, CO (KBKF)

A Few Clouds
30.0 F

Denver, Denver International Airport, CO (KDEN)

A Few Clouds
30.0 F

Denver - Centennial Airport, CO (KAPA)

A Few Clouds
30.0 F

Advertise Here

Advertise Here